www.pogodaiklimat.ru

Погода и климат >> Архив погоды >> Россия >> Ростовская область >> Ростов-на-Дону


АРХИВ ПОГОДЫ в Ростове-на-Дону

Время (UTC), дата Ветер
(напр.,м/с)
 
Видим.   Явления Облачность Т
(С)
Тd
(С)
f
(%)
Тe
(С)
Тes
(С)
Комфортность P
(гПа)
Po
(гПа)
Тmin
(С)
Tmax
(С)
R
(мм)
R24
(мм)
S
(см)
03 15.10 СЗ 3 8000 м 8/4 630 м
[Cb calv Ac trans]
+7.5 +4.3 80 +5 +5 по сезону 1015.0 1005.9 +7.5
06 15.10 З 4 10 км 6/4 300 м
[Sc Ac trans Ci fib]
+8.1 +4.4 77 +5 +6 по сезону 1016.2 1007.1 +6.7
09 15.10 З 5 10 км 9/5 1200 м
[Sc Ci fib]
+10.4 +3.8 64 +8 +9 прохладно 1015.8 1006.8
12 15.10 З 7-12
{13}
10 км 10/8 870 м
[Sc Ac und]
+10.6 +3.9 63 +7 +7 холодно 1013.3 1004.3
15 15.10 ЮЗ 7-10
{16}
2700 м слабый ливневой дождь 10/8 150 м
[Cb calv Ac und]
+9.3 +8.0 92 +5 +5 холодно 1009.8 1000.8 +11.6 2
18 15.10 З 4
{16}
5000 м слабый ливневой дождь 10/6 180 м
[Cb calv Ac und]
+11.8 +10.4 91 +10 +10 по сезону 1006.4 997.5
21 15.10 З 4
{13}
8000 м в посл. час ливневой дождь 6/1 600 м
[Cb calv Ac trans]
+10.9 +8.0 82 +8 +8 по сезону 1006.3 997.4
00 16.10 СЗ 5
{13}
8000 м слабый ливневой дождь 6/0
[Ac trans]
+9.7 +5.0 73 +7 +7 по сезону 1007.0 998.0
03 16.10 СЗ 6-10
{12}
8000 м 6/3 600 м
[Sc Ac trans]
+8.4 +3.8 73 +5 +5 по сезону 1009.8 1000.8 +8.4 8
06 16.10 СЗ 6-11
{13}
10 км 6/1 960 м
[Cb calv Ac trans]
+8.1 +2.6 68 +4 +5 прохладно 1013.1 1004.0 +7.1
09 16.10 СЗ 6-11
{13}
10 км 9/5 960 м
[Cb calv Ac trans]
+8.7 +1.8 62 +5 +6 холодно 1014.9 1005.8
12 16.10 СЗ 5
{13}
10 км 9/6 1170 м
[Sc Ac trans]
+8.5 +1.1 60 +5 +6 очень
холодно
1016.6 1007.5
15 16.10 СЗ 4 8000 м 9/6 1140 м
[Sc Ac trans]
+8.4 +1.5 62 +6 +6 прохладно 1018.2 1009.1 +9.5
18 16.10 З 2 8000 м 6/4 1500 м
[Sc Ac trans]
+6.5 +1.5 70 +4 +4 прохладно 1018.7 1009.5
21 16.10 З 2 8000 м 3/0
[Ac trans]
+6.3 +2.1 74 +4 +4 прохладно 1019.1 1009.9
00 17.10 З 3 8000 м 6/0
[Ac trans]
+7.4 +3.1 74 +5 +5 по сезону 1019.2 1010.0
03 17.10 З 3 8000 м 8/3 1000 м
[Sc Ac trans]
+8.2 +5.0 80 +6 +6 по сезону 1019.1 1010.0 +5.7
06 17.10 З 3 10 км 8/0
[Ac trans]
+10.1 +6.0 76 +8 +9 по сезону 1019.3 1010.2
09 17.10 З 5 10 км 8/4 1470 м
[Cu med, cong Ac trans Ci fib]
+14.4 +7.3 62 +13 +14 тепло 1018.3 1009.4
12 17.10 З 4
{11}
10 км 10/5 800 м
[Cb calv Ac und]
+13.7 +9.0 73 +12 +13 по сезону 1017.4 1008.5
15 17.10 З 3 8000 м в посл. час дождь 9/6 1470 м
[Sc Ac trans]
+13.2 +9.3 77 +12 +12 по сезону 1018.4 1009.4 +14.5
18 17.10 З 1 5000 м местами туман поземный {дождь} 6/3 1500 м
[Sc Ac trans]
+10.5 +8.4 87 +10 +10 по сезону 1020.4 1011.3
21 17.10 З 2 7000 м дымка 9/4 1500 м
[Sc Ac trans]
+12.2 +9.5 84 +11 +11 тепло 1021.1 1012.1
00 18.10 СЗ 2 6000 м дымка 6/1 1470 м
[Sc Ac trans]
+10.7 +8.8 88 +9 +9 тепло 1022.0 1012.9
03 18.10 штиль 0 300 м туман ?/? +8.0 +6.7 91 +7 +7 по сезону 1023.1 1013.9 +7.8
06 18.10 штиль 0 4700 м дымка {туман} 5/0
[Ac trans Ci fib]
+11.1 +10.2 94 +10 +12 тепло 1024.2 1015.1 +7.1
09 18.10 ЮЗ 3 10 км 8/0
[Ci fib]
+14.5 +9.7 73 +14 +18 тепло 1023.6 1014.6
12 18.10 ЮЗ 3 10 км 9/0
[Ci]
+15.9 +8.8 63 +15 +17 тепло 1022.6 1013.7
15 18.10 З 1 5000 м дымка 9/0
[Ac trans Ci fib]
+12.2 +9.2 82 +12 +12 тепло 1022.3 1013.3 +16.0
18 18.10 СЗ 2 4400 м дымка 4/0
[Ac trans]
+10.0 +8.6 91 +8 +8 по сезону 1022.3 1013.2
21 18.10 З 1 3500 м местами туман поземный 1/0
[Ac trans]
+9.4 +8.2 92 +9 +9 по сезону 1021.3 1012.2
00 19.10 З 3 3200 м дымка {туман} 6/4 360 м
[Sc Ac trans]
+9.6 +8.5 93 +7 +7 по сезону 1021.1 1012.0
03 19.10 З 4 700 м туман ?/? +12.7 +11.6 93 +11 +11 тепло 1020.7 1011.7 +8.9
06 19.10 ЮЗ 4 8000 м в посл. час туман 9/5 240 м
[Sc Ac trans]
+13.2 +12.4 95 +11 +12 тепло 1020.7 1011.7
09 19.10 З 6 10 км 9/5 800 м
[Sc Ac trans]
+15.8 +12.1 79 +14 +15 тепло 1019.8 1010.9
12 19.10 З 5
{10}
10 км 8/5 700 м
[Sc Ac trans]
+16.7 +12.0 74 +16 +16 тепло 1018.9 1010.1
15 19.10 З 5 3000 м дымка 8/8 90 м
[St]
+13.4 +11.9 91 +11 +11 по сезону 1018.9 1010.0 +17.0
18 19.10 З 6-10
{10}
5000 м дымка 9/5 240 м
[Frnb Ac trans]
+13.7 +11.6 87 +11 +11 тепло 1018.7 1009.8
21 19.10 З 3
{10}
3500 м дымка 10/10 120 м
[St]
+12.5 +11.0 91 +11 +11 тепло 1018.5 1009.5
00 20.10 З 2
{10}
200 м туман ?/? +11.6 +10.7 94 +10 +10 тепло 1018.2 1009.2
03 20.10 З 2 600 м слабая морось {туман} туман ?/? +10.9 +10.1 95 +9 +9 тепло 1018.6 1009.6 +10.8 0.0
06 20.10 ЮЗ 2 100 м туман {морось} ?/? +11.4 +10.6 95 +10 +10 тепло 1019.1 1010.1
09 20.10 З 2 2800 м слабая морось {туман} 10/10 150 м
[St]
+12.4 +11.7 95 +11 +11 по сезону 1019.1 1010.1
12 20.10 З 2 4300 м дымка {морось, туман} 10/10 270 м
[St]
+12.5 +10.8 89 +12 +12 по сезону 1018.9 1009.9
15 20.10 С 1 1500 м слабая морось 10/10 120 м
[St]
+12.2 +10.7 91 +12 +12 тепло 1019.2 1010.2 +12.8 0.0
18 20.10 ЮЗ 2 1500 м дымка {морось} 10/10 90 м
[St]
+11.9 +10.8 93 +11 +11 тепло 1019.2 1010.2
21 20.10 ЮЗ 2 2100 м дымка 10/10 210 м
[St]
+11.8 +10.7 93 +11 +11 тепло 1018.4 1009.4
00 21.10 СЗ 2 4100 м дымка 10/6 300 м
[Sc Ac trans]
+12.1 +10.6 91 +11 +11 тепло 1017.9 1008.9
03 21.10 ЮЗ 1 2700 м дымка 10/8 240 м
[Sc]
+11.5 +10.3 92 +11 +11 тепло 1017.5 1008.5 +11.5
06 21.10 ЮЗ 1 3000 м слабый дождь 10/8 240 м
[Sc Ac und]
+12.1 +10.8 92 +12 +12 тепло 1017.4 1008.4 +11.4
09 21.10 В 3 800 м туман {дождь} ?/? +10.2 +9.3 94 +8 +8 по сезону 1017.3 1008.3
12 21.10 В 3 5000 м дымка {дождь, туман} 10/10 90 м
[St]
+10.8 +9.6 92 +9 +9 по сезону 1015.9 1006.9
15 21.10 В 3 2400 м дымка 10/8 60 м
[Sc Ac und]
+9.9 +8.9 93 +8 +8 по сезону 1015.5 1006.5 +12.2 0.0
18 21.10 В 3 2400 м в посл. час туман 10/10 90 м
[St]
+9.6 +8.7 94 +7 +7 по сезону 1015.0 1006.0
21 21.10 В 3 200 м туман ?/? +9.3 +8.5 95 +7 +7 по сезону 1013.6 1004.6

 

Местоположение метеостанции Ростов-на-Дону (Ростовская область, Россия): широта 47.27 долгота 39.82 высота над уровнем моря 75 м.

В архиве по умолчанию представлена погода в Ростове-на-Дону за последнюю неделю. Архивные данные за месяц целиком и за предыдущие месяцы, начиная с января 2011 года, Вы можете получить, выбрав интересующий диапазон дат из раскрывающегося списка и нажав кнопку "Ввод!".

Внимание! Время в таблицах - всемирное. Для получения местного времени необходимо прибавить поправку, которая в Ростове-на-Дону равна 3 ч.

Смотрите также архив погоды в соседних городах и на ближайших метеорологических станциях:

Погода в Шахтах (Ростовская область, Россия) (59 км)
Погода в Зерноград (Ростовская область, Россия) (60 км)
Погода в Таганроге (Ростовская область, Россия) (70 км)
Погода в Матвеевом Кургане (Ростовская область, Россия) (78 км)
Погода в Семикаракорске (Ростовская область, Россия) (81 км)
Погода в Маргаритово (Ростовская область, Россия) (81 км)
Погода в Кущевской (Краснодарский край, Россия) (84 км)
Погода в Константиновске (Ростовская область, Россия) (102 км)
Погода в Староминская (Краснодарский край, Россия) (102 км)
Погода в Каменск-Шахтинском (Ростовская область, Россия) (120 км)

Пояснения к столбцам:

Ветер - указаны скорость ветра в м/с - средняя за 10 мин, порывы в срок и между сроками (в фигурных скобках) и направление, откуда дует ветер: С - северный, СВ - северо-восточный, В - восточный, ЮВ - юго-восточный, Ю - южный, ЮЗ - юго-западный, З - западный, СЗ - северо-западный.
Видимость - горизонтальная дальность видимости в метрах или километрах. При видимости от 1 до 10 км при отсутствии осадков обычно наблюдается дымка, при ухудшении видимости до 1 км и менее - туман. В сухую погоду видимость может ухудшаться дымом, пылью или мглою.
Явления - указаны атмосферные явления, наблюдавшиеся в срок или в последний час перед сроком; фигурными скобками обозначены явления, наблюдавшиеся между сроками (за 1-3 часа до срока); квадратными скобками обозначены град или гололедные отложения с указанием их диаметра в мм.
Облачность - указаны через наклонную черту общая и нижняя облачность в баллах и высота нижней границы облаков в метрах; квадратными скобками обозначены формы облаков: Ci - перистые, Cs - перисто-слоистые, Cc - перисто-кучевые, Ac - высококучевые, As - высокослоистые, Sc - слоисто-кучевые, Ns - слоисто-дождевые, Cu - кучевые, Cb - кучево-дождевые. Подробнее классификацию облаков см. в Атласе облаков (PDF).
T - Температура воздуха - температура, измеренная на высоте 2 м над землей.
Td - Температура точки росы - температура, при понижении до которой содержащийся в воздухе водяной пар достигнет насыщения.
f - Относительная влажность воздуха - влажноcть воздуха, измеренная на высоте 2 м над землей.
Te - Эффективная температура - температура, которую ощущает одетый по сезону человек в тени. Характеристика душности погоды. При расчете учитывается влияние влажности воздуха и скорости ветра на теплоощущения человека.
Tes - Эффективная температура на солнце - температура, которую ощущает человек, с поправкой на солнечный нагрев. Характеристика знойности погоды. Зависит от высоты солнца над горизонтом, облачности и скорости ветра. Ночью, в пасмурную погоду, а также при ветре 12 м/с и более поправка равна нулю.
P - Атмосферное давление - приведенное к уровню моря атмосферное давление.
Po - Атмосферное давление - измеренное на уровне метеостанции атмосферное давление.
Tmin - Минимальная температура - минимум температуры воздуха на высоте 2 м над землей.
Tmax - Максимальная температура - максимум температуры воздуха на высоте 2 м над землей.
R - Количество осадков - Количество выпавших осадков за период времени, мм. При наведении курсора мыши на число - период времени, за который выпало указанное количество осадков.
R24 - Количество осадков - Количество выпавших осадков за 24 часа, мм.
S - Снежный покров - Высота снежного покрова, см. При наведении курсора мыши на число - состояние снежного покрова и степень покрытия местности в баллах.